Content
SEND FEEDBACK

Daily
Averages
Monthly
Summary
United States of America

CAMP VERDE, ARIZONA


Home > North America > United States > Arizona
Elevation: 3180 feet     Latitude: 34 37N     Longitude: 111 50W

WEATHER
 
SELECT A DAY
Number of Records: 130,572;   Date Range: 1/4/95 - 8/30/14
 
SHARE

PRINT THIS DATA

[ ← Previous Day ]
WEATHER ALMANAC - APRIL 25, 2014
[ Next Day → ]
[ °C ]   °F
Weather ElementAverageHighLow
Temperature64.3 °F77 °F (12:55 pm)53.6 °F (4:55 am)
Dewpoint19.6 °F30.2 °F (10:55 pm)10.4 °F (12:35 am)
Humidity18.4 %31 % (10:55 pm)13 % (12:15 pm)
Barometer29.90 in30.00 in (12:35 am)29.76 in (11:35 pm)
Wind Speed11.5 mph26.5 mph (2:35 pm)
Wind Gust41.4 mph (1:35 pm)
Weather ElementAverage
Visibility10 mi
Wind DirectionSSE (141.9 °)

Weather ElementTotal
Precipitation---
Cooling Degree Days0.3 (Base 65)
Growing Degree Days15.3 (Base 50)
Averaged from 70 records on April 25, 2014
WEATHER CONDITIONS BREAKOUT
WIND DIRECTION BREAKOUT
WEATHER BY HOUR - APRIL 25, 2014
[ °C ]   °F
Local TimeTemperatureDewpointHumidityBarometerVisibilityWind DirectionWind SpeedGust SpeedPrecipitationEventsConditions
12:35 AM57.2 °F10.4 °F16 %30.00 in10.0 miSE (140°)5.8 mphClear
12:55 AM55.4 °F10.4 °F17 %30.00 in10.0 miSE (140°)4.6 mphClear
1:15 AM57.2 °F10.4 °F16 %30.00 in10.0 miSE (130°)3.5 mphClear
1:35 AM57.2 °F10.4 °F16 %29.99 in10.0 miCalmClear
1:55 AM55.4 °F10.4 °F17 %29.99 in10.0 miESE (120°)3.5 mphClear
2:15 AM55.4 °F10.4 °F17 %29.98 in10.0 miCalmClear
2:35 AM55.4 °F12.2 °F18 %29.97 in10.0 miESE (110°)4.6 mphClear
2:55 AM55.4 °F10.4 °F17 %29.98 in10.0 miSE (140°)3.5 mphClear
3:15 AM55.4 °F10.4 °F17 %29.97 in10.0 miCalmClear
3:35 AM57.2 °F10.4 °F16 %29.98 in10.0 miCalmClear
3:55 AM57.2 °F10.4 °F16 %29.97 in10.0 miCalmClear
4:15 AM55.4 °F12.2 °F18 %29.97 in10.0 miCalmClear
4:35 AM55.4 °F10.4 °F17 %29.97 in10.0 miCalmClear
4:55 AM53.6 °F12.2 °F19 %29.96 in10.0 miCalmClear
5:15 AM53.6 °F12.2 °F19 %29.96 in10.0 miESE (110°)3.5 mphClear
5:35 AM53.6 °F12.2 °F19 %29.96 in10.0 miCalmClear
5:55 AM53.6 °F12.2 °F19 %29.96 in10.0 miSE (130°)3.5 mphClear
6:15 AM55.4 °F12.2 °F18 %29.97 in10.0 miCalmClear
6:35 AM55.4 °F14.0 °F20 %29.97 in10.0 miCalmClear
6:55 AM57.2 °F14.0 °F18 %29.97 in10.0 miCalmClear
7:15 AM59.0 °F14.0 °F17 %29.98 in10.0 miCalmClear
7:35 AM59.0 °F15.8 °F19 %29.98 in10.0 miCalmClear
7:55 AM60.8 °F19.4 °F20 %29.99 in10.0 miCalmClear
8:15 AM62.6 °F19.4 °F19 %29.98 in10.0 miSSE (160°)5.8 mphClear
8:35 AM64.4 °F17.6 °F16 %29.98 in10.0 miSSW (200°)6.9 mphClear
9:15 AM68.0 °F21.2 °F17 %29.98 in10.0 miSSW (200°)10.4 mphClear
9:35 AM68.0 °F21.2 °F17 %29.99 in10.0 miSouth (170°)11.5 mph16.1 mphClear
9:55 AM68.0 °F21.2 °F17 %29.98 in10.0 miSouth (190°)12.7 mph17.3 mphClear
10:15 AM69.8 °F21.2 °F16 %29.98 in10.0 miSouth (180°)15.0 mph20.7 mphClear
10:35 AM71.6 °F21.2 °F15 %29.97 in10.0 miSouth (170°)11.5 mph23.0 mphClear
10:55 AM69.8 °F21.2 °F16 %29.97 in10.0 miSouth (180°)11.5 mph19.6 mphClear
11:15 AM71.6 °F21.2 °F15 %29.95 in10.0 miSSW (210°)18.4 mph28.8 mphClear
11:35 AM73.4 °F23.0 °F15 %29.95 in10.0 miSSW (200°)10.4 mph29.9 mphClear
11:55 AM73.4 °F21.2 °F14 %29.94 in10.0 miSSW (210°)19.6 mph29.9 mphClear
12:15 PM75.2 °F21.2 °F13 %29.92 in10.0 miSouth (170°)23.0 mph29.9 mphClear
12:35 PM75.2 °F21.2 °F13 %29.91 in10.0 miSSE (160°)13.8 mph31.1 mphClear
12:55 PM77.0 °F23.0 °F13 %29.91 in10.0 miSSW (200°)17.3 mph27.6 mphClear
1:15 PM73.4 °F21.2 °F14 %29.90 in10.0 miSSW (210°)19.6 mph29.9 mphClear
1:35 PM73.4 °F23.0 °F15 %29.90 in10.0 miSW (220°)25.3 mph41.4 mphClear
1:55 PM73.4 °F23.0 °F15 %29.90 in10.0 miSSW (200°)23.0 mph33.4 mphClear
2:15 PM73.4 °F23.0 °F15 %29.88 in10.0 miSSW (200°)18.4 mph29.9 mphClear
2:35 PM73.4 °F23.0 °F15 %29.88 in10.0 miSSW (200°)26.5 mph34.5 mphClear
2:55 PM71.6 °F23.0 °F16 %29.88 in10.0 miSW (220°)17.3 mph29.9 mphClear
3:15 PM73.4 °F23.0 °F15 %29.87 in10.0 miSSW (200°)24.2 mph33.4 mphClear
3:35 PM73.4 °F23.0 °F15 %29.85 in10.0 miSouth (170°)23.0 mph32.2 mphClear
3:55 PM71.6 °F23.0 °F16 %29.86 in10.0 miSSW (200°)11.5 mph21.9 mphClear
4:15 PM73.4 °F23.0 °F15 %29.84 in10.0 miSouth (190°)21.9 mph31.1 mphClear
4:35 PM71.6 °F21.2 °F15 %29.84 in10.0 miSSW (200°)23.0 mph33.4 mphClear
4:55 PM71.6 °F23.0 °F16 %29.83 in10.0 miSouth (190°)20.7 mph29.9 mphClear
5:15 PM69.8 °F23.0 °F17 %29.82 in10.0 miSouth (190°)20.7 mph31.1 mphClear
5:35 PM69.8 °F23.0 °F17 %29.83 in10.0 miSouth (190°)16.1 mph29.9 mphClear
5:55 PM69.8 °F23.0 °F17 %29.82 in10.0 miSSW (210°)18.4 mph29.9 mphClear
6:15 PM68.0 °F23.0 °F18 %29.82 in10.0 miSouth (190°)19.6 mph28.8 mphClear
6:35 PM68.0 °F23.0 °F18 %29.82 in10.0 miSouth (190°)12.7 mph25.3 mphClear
6:55 PM68.0 °F19.4 °F16 %29.82 in10.0 miSSW (200°)13.8 mph27.6 mphClear
7:15 PM66.2 °F19.4 °F17 %29.82 in10.0 miSouth (180°)16.1 mph23.0 mphClear
7:35 PM64.4 °F19.4 °F18 %29.82 in10.0 miSSW (200°)15.0 mph26.5 mphClear
7:55 PM64.4 °F21.2 °F19 %29.81 in10.0 miSouth (190°)10.4 mph18.4 mphClear
8:15 PM64.4 °F21.2 °F19 %29.81 in10.0 miSouth (190°)12.7 mph18.4 mphClear
8:35 PM62.6 °F23.0 °F22 %29.82 in10.0 miSSW (200°)11.5 mph19.6 mphClear
8:55 PM62.6 °F24.8 °F24 %29.82 in10.0 miSouth (190°)12.7 mph23.0 mphClear
9:15 PM62.6 °F26.6 °F26 %29.82 in10.0 miSSW (200°)18.4 mph27.6 mphClear
9:35 PM62.6 °F28.4 °F27 %29.81 in10.0 miSouth (180°)16.1 mph23.0 mphClear
9:55 PM62.6 °F28.4 °F27 %29.81 in10.0 miSouth (180°)13.8 mph23.0 mphClear
10:15 PM62.6 °F28.4 °F27 %29.80 in10.0 miSouth (170°)13.8 mph23.0 mphClear
10:35 PM60.8 °F28.4 °F29 %29.79 in10.0 miSouth (180°)12.7 mph20.7 mphClear
10:55 PM60.8 °F30.2 °F31 %29.78 in10.0 miSouth (170°)16.1 mph27.6 mphClear
11:15 PM60.8 °F30.2 °F31 %29.77 in10.0 miSouth (170°)17.3 mph21.9 mphClear
11:35 PM60.8 °F30.2 °F31 %29.76 in10.0 miSouth (180°)19.6 mph25.3 mphClear
11:55 PM60.8 °F30.2 °F31 %29.76 in10.0 miSSE (160°)19.6 mph27.6 mphClear
Hourly data recorded from KSEZ, located miles away from Camp Verde, Arizona







STORIES FROM OUR PARTNERS